Simultaneous Nadir Overpasses (SNOs) Predictions

Prediction of SNOs between TERRA and METOP-C Satellite Orbit:

Table of predicted SNOs for the next 14.0 days since TLE Epoch: 9/5/2020
Index Date (TERRA) Time (TERRA) Lat,Lon (TERRA) SZA (TERRA ) Date (METOP-C) Time (METOP-C) Lat,Lon (METOP-C) SZA (METOP-C ) Distance(km) Time Diff (sec)
1 09/07/2020 01:50:15 -81.31, 19.94 101.74 09/07/2020 01:49:44 -81.31, 19.83 101.76 1.72 31
2 09/07/2020 02:39:41 81.32,-172.28 78.30 09/07/2020 02:40:24 81.32,-172.45 78.30 2.98 43
3 09/09/2020 21:24:29 -81.31, 86.35 100.66 09/09/2020 21:24:04 -81.31, 86.19 100.69 2.67 25
4 09/09/2020 22:13:55 81.32,-105.90 79.38 09/09/2020 22:14:43 81.32,-105.78 79.42 2.07 48
5 09/12/2020 16:58:44 -81.31, 152.72 99.58 09/12/2020 16:58:25 -81.31, 152.53 99.61 3.28 19
6 09/12/2020 17:48:10 81.31, -39.55 80.45 09/12/2020 17:49:04 81.32, -39.51 80.49 1.13 54
7 09/15/2020 12:32:58 -81.32,-140.57 98.43 09/15/2020 12:32:44 -81.32,-140.37 98.42 3.30 14
8 09/15/2020 13:22:24 81.33, 27.14 81.59 09/15/2020 13:23:24 81.32, 27.14 81.62 0.30 60
9 09/18/2020 08:07:12 -81.32, -74.27 97.34 09/18/2020 08:07:05 -81.31, -74.45 97.37 3.15 7



Historial Predications of SNOs between TERRA and METOP-C
